�������l�o���
Date,Time,MP-1(��Sv/h),MP-2(��Sv/h),MP-3(��Sv/h),MP-4(��Sv/h),MP-5(��Sv/h),MP-6(��Sv/h),MP-7(��Sv/h),����,����(m/s),���J
2015/06/16,00:00,0.519,0.301,0.551,0.496,0.469,0.245,0.218,��,0.7,�L
2015/06/16,00:10,0.527,0.303,0.550,0.495,0.467,0.247,0.219,�k�k��,1.6,�L
2015/06/16,00:20,0.524,0.303,0.556,0.495,0.472,0.246,0.218,�k�k��,1.5,�L
2015/06/16,00:30,0.527,0.305,0.551,0.501,0.469,0.248,0.221,�k�k��,2.8,�L
2015/06/16,00:40,0.530,0.307,0.559,0.499,0.475,0.247,0.219,�k�k��,2.7,�L
2015/06/16,00:50,0.523,0.306,0.555,0.501,0.471,0.249,0.221,�k,1.9,�L
2015/06/16,01:00,0.532,0.308,0.557,0.500,0.474,0.250,0.220,�k,1.0,�L
2015/06/16,01:10,0.526,0.306,0.556,0.501,0.472,0.248,0.221,���쐼,1.1,�L
2015/06/16,01:20,0.528,0.307,0.552,0.501,0.470,0.249,0.220,���쐼,1.8,�L
2015/06/16,01:30,0.528,0.305,0.559,0.498,0.474,0.248,0.222,��,0.7,�L
2015/06/16,01:40,0.525,0.307,0.551,0.501,0.469,0.249,0.221,�쓌,0.7,��
2015/06/16,01:50,0.528,0.303,0.557,0.493,0.472,0.247,0.220,��쓌,1.6,��
2015/06/16,02:00,0.522,0.305,0.554,0.497,0.468,0.247,0.219,��쓌,1.6,��
2015/06/16,02:10,0.528,0.305,0.552,0.496,0.469,0.247,0.219,��,1.9,��
2015/06/16,02:20,0.525,0.303,0.553,0.496,0.471,0.246,0.219,��쓌,1.9,��
2015/06/16,02:30,0.524,0.303,0.548,0.497,0.467,0.245,0.218,��,2.5,��
2015/06/16,02:40,0.526,0.303,0.554,0.493,0.472,0.245,0.220,��,2.7,��
2015/06/16,02:50,0.521,0.305,0.549,0.499,0.465,0.247,0.218,��,3.0,��
2015/06/16,03:00,0.527,0.301,0.551,0.495,0.470,0.246,0.219,��,3.9,��
2015/06/16,03:10,0.522,0.304,0.552,0.495,0.467,0.246,0.218,��쓌,3.9,��
2015/06/16,03:20,0.524,0.302,0.548,0.496,0.469,0.245,0.219,��,2.1,�L
2015/06/16,03:30,0.524,0.301,0.553,0.493,0.469,0.244,0.218,��,2.2,��
2015/06/16,03:40,0.520,0.303,0.548,0.497,0.466,0.246,0.218,��쓌,2.2,�L
2015/06/16,03:50,0.527,0.302,0.552,0.492,0.473,0.244,0.218,��쓌,1.0,��
2015/06/16,04:00,0.521,0.303,0.550,0.498,0.465,0.246,0.218,-,CALM,��
2015/06/16,04:10,0.523,0.300,0.547,0.494,0.472,0.246,0.219,���쐼,1.5,��
2015/06/16,04:20,0.523,0.305,0.555,0.495,0.469,0.245,0.218,�쐼,1.8,��
2015/06/16,04:30,0.521,0.302,0.548,0.496,0.466,0.246,0.218,��쐼,0.5,��
2015/06/16,04:40,0.527,0.303,0.551,0.491,0.470,0.245,0.218,��쐼,0.8,��
2015/06/16,04:50,0.523,0.303,0.551,0.498,0.465,0.246,0.219,��,2.3,��
2015/06/16,05:00,0.525,0.301,0.550,0.491,0.472,0.246,0.218,��,2.0,��
2015/06/16,05:10,0.525,0.305,0.555,0.495,0.467,0.247,0.219,��,1.5,��
2015/06/16,05:20,0.521,0.301,0.548,0.495,0.470,0.246,0.218,��쐼,2.3,��
2015/06/16,05:30,0.528,0.304,0.555,0.492,0.468,0.246,0.219,��쐼,1.7,��
2015/06/16,05:40,0.519,0.303,0.551,0.496,0.467,0.245,0.218,��,1.4,��
2015/06/16,05:50,0.526,0.301,0.549,0.492,0.471,0.244,0.218,��쓌,0.7,��
2015/06/16,06:00,0.524,0.302,0.552,0.497,0.465,0.245,0.219,-,CALM,��
2015/06/16,06:10,0.521,0.301,0.548,0.493,0.471,0.245,0.218,-,CALM,��
2015/06/16,06:20,0.527,0.304,0.554,0.495,0.466,0.245,0.220,�k�k��,0.5,��
2015/06/16,06:30,0.520,0.301,0.550,0.496,0.466,0.246,0.217,�k,1.3,��
2015/06/16,06:40,0.526,0.303,0.550,0.491,0.470,0.245,0.219,�k�k��,1.8,��
2015/06/16,06:50,0.525,0.303,0.555,0.496,0.464,0.246,0.218,�k,1.3,��
2015/06/16,07:00,0.518,0.300,0.546,0.493,0.471,0.244,0.216,�k,0.7,��
2015/06/16,07:10,0.527,0.301,0.552,0.491,0.469,0.244,0.219,�k�k��,1.4,��
2015/06/16,07:20,0.522,0.303,0.552,0.497,0.464,0.246,0.218,�k�k��,1.3,��
2015/06/16,07:30,0.519,0.302,0.548,0.495,0.468,0.244,0.218,�k,1.3,��
2015/06/16,07:40,0.527,0.299,0.545,0.489,0.471,0.245,0.218,�k,1.4,��
2015/06/16,07:50,0.523,0.301,0.553,0.491,0.467,0.245,0.217,�k,0.7,��
2015/06/16,08:00,0.521,0.303,0.549,0.496,0.464,0.244,0.216,�k,1.0,��
2015/06/16,08:10,0.526,0.302,0.545,0.494,0.464,0.246,0.218,�k�k��,1.4,��
2015/06/16,08:20,0.523,0.299,0.543,0.489,0.471,0.244,0.217,�k��,1.3,��
2015/06/16,08:30,0.520,0.298,0.550,0.487,0.466,0.245,0.217,�k��,1.3,��
2015/06/16,08:40,0.526,0.301,0.553,0.487,0.465,0.244,0.217,�k��,1.2,��
2015/06/16,08:50,0.523,0.303,0.549,0.489,0.464,0.244,0.217,��,0.5,��
2015/06/16,09:00,0.519,0.302,0.546,0.497,0.464,0.246,0.216,���k��,1.1,��
2015/06/16,09:10,0.518,0.301,0.544,0.496,0.463,0.245,0.218,���k��,1.1,��
2015/06/16,09:20,0.522,0.300,0.544,0.494,0.468,0.244,0.218,�k��,0.9,��
2015/06/16,09:30,0.527,0.299,0.554,0.492,0.471,0.245,0.217,-,CALM,��
2015/06/16,09:40,0.524,0.300,0.551,0.490,0.469,0.246,0.217,-,CALM,��
2015/06/16,09:50,0.517,0.300,0.549,0.489,0.467,0.248,0.217,-,CALM,��
2015/06/16,10:00,0.517,0.304,0.545,0.489,0.466,0.246,0.216,���쓌,1.0,��
2015/06/16,10:10,0.525,0.303,0.549,0.491,0.465,0.243,0.219,-,CALM,��
2015/06/16,10:20,0.527,0.303,0.553,0.496,0.465,0.244,0.218,�쓌,0.7,��
2015/06/16,10:30,0.523,0.300,0.551,0.499,0.469,0.247,0.217,��,1.6,��
2015/06/16,10:40,0.518,0.300,0.546,0.496,0.473,0.245,0.219,��,0.6,��
2015/06/16,10:50,0.530,0.305,0.551,0.491,0.470,0.244,0.219,�k��,1.6,��
2015/06/16,11:00,0.528,0.303,0.555,0.498,0.467,0.246,0.217,���k��,1.4,��
2015/06/16,11:10,0.522,0.302,0.550,0.497,0.466,0.245,0.218,���k��,1.2,��
2015/06/16,11:20,0.523,0.301,0.544,0.494,0.467,0.245,0.220,�k��,1.3,��
2015/06/16,11:30,0.526,0.306,0.550,0.492,0.468,0.244,0.219,�k��,2.5,��
2015/06/16,11:40,0.523,0.304,0.557,0.497,0.473,0.246,0.217,�k��,2.2,��
2015/06/16,11:50,0.520,0.302,0.551,0.499,0.471,0.246,0.217,�k�k��,2.0,��
2015/06/16,12:00,0.530,0.302,0.547,0.495,0.468,0.246,0.219,�k�k��,2.4,��
2015/06/16,12:10,0.525,0.304,0.552,0.492,0.467,0.245,0.218,�k�k��,2.3,��
2015/06/16,12:20,0.519,0.304,0.556,0.498,0.465,0.245,0.216,�k��,2.2,��
2015/06/16,12:30,0.527,0.301,0.551,0.500,0.474,0.245,0.218,�k�k��,2.3,��
2015/06/16,12:40,0.525,0.302,0.548,0.494,0.472,0.246,0.221,�k�k��,1.3,��
2015/06/16,12:50,0.521,0.305,0.553,0.491,0.469,0.245,0.220,�k�k��,2.8,��
2015/06/16,13:00,0.525,0.302,0.554,0.495,0.466,0.246,0.216,�k�k��,2.6,��
2015/06/16,13:10,0.526,0.301,0.550,0.498,0.465,0.246,0.217,�k��,2.1,��
2015/06/16,13:20,0.521,0.303,0.546,0.493,0.467,0.246,0.220,�k��,2.7,��
2015/06/16,13:30,0.526,0.304,0.553,0.491,0.473,0.245,0.219,���k��,1.9,��
2015/06/16,13:40,0.525,0.302,0.555,0.498,0.469,0.245,0.217,�k��,1.2,��
2015/06/16,13:50,0.520,0.300,0.551,0.498,0.465,0.245,0.220,�k��,1.0,��
2015/06/16,14:00,0.524,0.304,0.547,0.493,0.465,0.245,0.219,���k��,0.7,��
2015/06/16,14:10,0.528,0.303,0.556,0.491,0.469,0.245,0.216,-,CALM,��
2015/06/16,14:20,0.522,0.301,0.554,0.494,0.471,0.244,0.217,��,1.3,��
2015/06/16,14:30,0.525,0.301,0.545,0.500,0.467,0.245,0.219,���k��,1.0,��
2015/06/16,14:40,0.527,0.304,0.550,0.496,0.465,0.246,0.218,�k��,1.2,��
2015/06/16,14:50,0.521,0.301,0.553,0.493,0.467,0.246,0.216,�k�k��,2.0,��
2015/06/16,15:00,0.529,0.302,0.551,0.499,0.471,0.245,0.218,�k��,3.0,��
2015/06/16,15:10,0.525,0.304,0.548,0.496,0.469,0.246,0.220,�k��,2.8,��
2015/06/16,15:20,0.524,0.302,0.556,0.493,0.465,0.246,0.217,�k�k��,3.1,��
2015/06/16,15:30,0.528,0.304,0.553,0.499,0.475,0.244,0.219,�k�k��,2.8,��
2015/06/16,15:40,0.521,0.303,0.547,0.497,0.472,0.246,0.219,�k,2.7,��
2015/06/16,15:50,0.527,0.302,0.557,0.493,0.468,0.246,0.218,�k,2.1,��
2015/06/16,16:00,0.525,0.304,0.552,0.499,0.472,0.245,0.219,�k�k��,1.2,��
2015/06/16,16:10,0.520,0.303,0.549,0.497,0.472,0.245,0.218,�k�k��,1.6,��
2015/06/16,16:20,0.527,0.302,0.555,0.492,0.467,0.246,0.217,�k,1.4,��
2015/06/16,16:30,0.522,0.304,0.552,0.497,0.471,0.245,0.219,�k,1.3,��
2015/06/16,16:40,0.524,0.302,0.549,0.498,0.470,0.246,0.217,�k�k��,1.4,��
2015/06/16,16:50,0.526,0.304,0.554,0.493,0.468,0.245,0.218,�k�k��,2.3,��
2015/06/16,17:00,0.521,0.304,0.551,0.499,0.473,0.245,0.219,�k�k��,3.1,��
2015/06/16,17:10,0.526,0.300,0.551,0.496,0.472,0.246,0.218,�k,3.4,��
2015/06/16,17:20,0.523,0.304,0.556,0.495,0.467,0.245,0.219,�k,4.1,��
2015/06/16,17:30,0.524,0.301,0.549,0.498,0.473,0.246,0.218,�k,4.4,��
2015/06/16,17:40,0.525,0.303,0.554,0.494,0.469,0.245,0.219,�k,4.6,��
2015/06/16,17:50,0.522,0.303,0.553,0.497,0.469,0.244,0.220,�k,3.4,��
2015/06/16,18:00,0.530,0.300,0.549,0.499,0.471,0.246,0.217,�k,3.5,��
2015/06/16,18:10,0.521,0.304,0.555,0.493,0.467,0.245,0.220,�k,4.0,��
2015/06/16,18:20,0.525,0.303,0.553,0.498,0.471,0.245,0.218,�k,4.2,��
2015/06/16,18:30,0.527,0.303,0.547,0.498,0.471,0.246,0.219,�k,4.2,��
2015/06/16,18:40,0.522,0.303,0.556,0.493,0.466,0.245,0.220,�k,4.2,��
2015/06/16,18:50,0.528,0.300,0.550,0.499,0.472,0.246,0.218,�k,3.1,��
2015/06/16,19:00,0.524,0.304,0.551,0.494,0.469,0.245,0.220,�k,4.3,��
2015/06/16,19:10,0.526,0.303,0.556,0.496,0.468,0.246,0.219,�k,4.2,��
2015/06/16,19:20,0.525,0.303,0.550,0.497,0.472,0.246,0.219,�k,3.8,��
2015/06/16,19:30,0.523,0.305,0.554,0.494,0.466,0.245,0.218,�k,2.9,��
2015/06/16,19:40,0.527,0.302,0.553,0.498,0.472,0.247,0.217,�k,3.1,��
2015/06/16,19:50,0.521,0.304,0.549,0.497,0.470,0.245,0.220,�k,4.1,��
2015/06/16,20:00,0.527,0.302,0.554,0.493,0.467,0.246,0.218,�k,4.2,��
2015/06/16,20:10,0.525,0.304,0.552,0.498,0.472,0.245,0.218,�k,3.9,��
2015/06/16,20:20,0.524,0.304,0.550,0.495,0.468,0.244,0.219,�k,4.0,��
2015/06/16,20:30,0.528,0.300,0.556,0.495,0.469,0.245,0.218,�k,3.6,��
2015/06/16,20:40,0.522,0.304,0.551,0.499,0.471,0.246,0.218,�k,3.4,��
2015/06/16,20:50,0.527,0.302,0.556,0.492,0.466,0.246,0.217,�k,4.2,��
2015/06/16,21:00,0.525,0.305,0.553,0.497,0.473,0.245,0.219,�k�k��,1.9,��
2015/06/16,21:10,0.524,0.303,0.548,0.495,0.468,0.246,0.218,�k,2.2,��
2015/06/16,21:20,0.528,0.302,0.554,0.494,0.471,0.245,0.218,�k,2.8,��
2015/06/16,21:30,0.520,0.305,0.551,0.499,0.470,0.245,0.220,�k,3.1,��
2015/06/16,21:40,0.526,0.301,0.553,0.493,0.467,0.247,0.218,�k�k��,2.8,��
2015/06/16,21:50,0.525,0.305,0.554,0.499,0.474,0.246,0.220,�k,3.6,�L
2015/06/16,22:00,0.523,0.302,0.549,0.496,0.467,0.246,0.218,�k�k��,3.9,�L
2015/06/16,22:10,0.525,0.303,0.556,0.492,0.471,0.247,0.219,�k�k��,3.3,��
2015/06/16,22:20,0.522,0.303,0.550,0.499,0.469,0.245,0.218,�k�k��,3.1,��
2015/06/16,22:30,0.527,0.302,0.554,0.495,0.468,0.247,0.218,�k,3.6,��
2015/06/16,22:40,0.524,0.303,0.554,0.500,0.473,0.246,0.219,�k�k��,4.3,��
2015/06/16,22:50,0.523,0.302,0.550,0.498,0.467,0.246,0.218,�k�k��,4.1,��
2015/06/16,23:00,0.529,0.303,0.556,0.494,0.472,0.246,0.219,�k�k��,4.1,��
2015/06/16,23:10,0.521,0.303,0.550,0.499,0.467,0.245,0.218,�k�k��,4.7,��
2015/06/16,23:20,0.528,0.302,0.553,0.495,0.470,0.247,0.219,�k�k��,5.3,��
2015/06/16,23:30,0.524,0.303,0.555,0.497,0.470,0.245,0.219,�k��,5.4,�L
2015/06/16,23:40,0.523,0.302,0.549,0.496,0.467,0.246,0.218,�k�k��,5.7,��
2015/06/16,23:50,0.529,0.304,0.555,0.493,0.473,0.246,0.219,�k�k��,5.2,�L
